TimeMDT,TemperatureF,Dew PointF,Humidity,Sea Level PressureIn,VisibilityMPH,Wind Direction,Wind SpeedMPH,Gust SpeedMPH,PrecipitationIn,Events,Conditions,WindDirDegrees,DateUTC
12:52 AM,48.0,23.0,37,30.16,10.0,ENE,4.6,-,N/A,,Clear,60,2013-03-13 06:52:00
1:52 AM,45.0,23.0,42,30.18,10.0,West,5.8,-,N/A,,Clear,270,2013-03-13 07:52:00
2:52 AM,45.0,23.0,42,30.19,10.0,North,10.4,-,N/A,,Clear,360,2013-03-13 08:52:00
3:52 AM,43.0,24.1,47,30.19,10.0,North,10.4,-,N/A,,Partly Cloudy,10,2013-03-13 09:52:00
4:52 AM,41.0,24.1,51,30.21,10.0,North,6.9,-,N/A,,Partly Cloudy,350,2013-03-13 10:52:00
5:52 AM,41.0,24.1,51,30.22,10.0,North,4.6,-,N/A,,Clear,10,2013-03-13 11:52:00
6:52 AM,41.0,24.1,51,30.23,10.0,North,4.6,-,N/A,,Clear,10,2013-03-13 12:52:00
7:52 AM,37.9,23.0,55,30.27,10.0,NW,3.5,-,N/A,,Clear,310,2013-03-13 13:52:00
8:52 AM,44.1,25.0,47,30.29,10.0,Calm,Calm,-,N/A,,Clear,0,2013-03-13 14:52:00
9:52 AM,48.0,25.0,41,30.29,10.0,Calm,Calm,-,N/A,,Clear,0,2013-03-13 15:52:00
10:52 AM,54.0,21.9,29,30.30,10.0,Calm,Calm,-,N/A,,Clear,0,2013-03-13 16:52:00
11:52 AM,57.0,21.9,26,30.28,10.0,Calm,Calm,-,N/A,,Clear,0,2013-03-13 17:52:00
12:52 PM,60.8,23.0,23,30.36,10.0,NE,4.6,-,N/A,,Clear,50,2013-03-13 18:52:00
1:52 PM,63.0,21.9,21,30.21,10.0,ENE,3.5,-,N/A,,Clear,70,2013-03-13 19:52:00
2:52 PM,64.0,21.9,20,30.17,10.0,Variable,3.5,-,N/A,,Clear,0,2013-03-13 20:52:00
3:52 PM,68.0,21.2,17,30.28,10.0,NW,8.1,-,N/A,,Clear,310,2013-03-13 21:52:00
4:52 PM,69.1,19.0,15,30.14,10.0,NNW,9.2,-,N/A,,Partly Cloudy,340,2013-03-13 22:52:00
5:52 PM,69.8,19.4,15,30.25,10.0,NNW,9.2,-,N/A,,Partly Cloudy,340,2013-03-13 23:52:00
6:52 PM,68.0,18.0,15,30.12,10.0,NNW,10.4,-,N/A,,Scattered Clouds,330,2013-03-14 00:52:00
7:52 PM,64.4,15.8,15,30.26,10.0,NNW,10.4,-,N/A,,Scattered Clouds,340,2013-03-14 01:52:00
8:52 PM,62.1,16.0,17,30.17,10.0,NW,8.1,-,N/A,,Partly Cloudy,320,2013-03-14 02:52:00
9:52 PM,60.1,15.1,17,30.18,10.0,North,8.1,-,N/A,,Partly Cloudy,350,2013-03-14 03:52:00
10:52 PM,57.0,16.0,20,30.18,10.0,Calm,Calm,-,N/A,,Partly Cloudy,0,2013-03-14 04:52:00
11:52 PM,54.0,15.1,22,30.18,10.0,WNW,4.6,-,N/A,,Partly Cloudy,300,2013-03-14 05:52:00